FW2178 Weather Reports


Display with metric or nautical units.
time (UTC)temp
F
wind
direction
speed
MPH
gust
MPH
rain 1hr
in
rain 24hr
in
rain mn
in
humidity
%
barometer
mb
20260502163129 56 124 1.0 2.0 0.00 0.00 0.00 85 1015.7
20260502162923 56 135 0.0 2.0 0.00 0.00 0.00 88 1015.4
20260502162133 56 99 1.0 2.0 0.00 0.00 0.00 87 1015.2
20260502161630 55 138 1.0 2.0 0.00 0.00 0.00 86 1015.1
20260502161423 55 159 0.0 2.0 0.00 0.00 0.00 88 1015.3
20260502160632 55 158 0.0 1.0 0.00 0.00 0.00 87 1015.6
20260502160423 55 142 0.0 2.0 0.00 0.00 0.00 87 1015.3
20260502152134 53 112 0.0 0.0 0.00 0.00 0.00 92 1015.1
20260502151944 53 112 0.0 0.0 0.00 0.00 0.00 92 1015.1
20260502151131 53 112 0.0 0.0 0.00 0.00 0.00 93 1015.2
20260502150634 53 111 0.0 0.0 0.00 0.00 0.00 93 1015.1
20260502150132 52 115 0.0 0.0 0.00 0.00 0.00 92 1015.2
20260502140130 49 119 0.0 0.0 0.00 0.00 0.00 96 1015.3
20260502130414 49 120 0.0 0.0 0.00 0.00 0.00 96 1015.0
20260502123633 49 119 0.0 0.0 0.00 0.00 0.00 95 1015.3
20260502123128 49 119 0.0 0.0 0.00 0.00 0.00 95 1015.6
20260502122916 49 119 0.0 0.0 0.00 0.00 0.00 95 1015.3
20260502122129 49 119 0.0 0.0 0.00 0.00 0.00 95 1015.0
20260502121922 49 125 0.0 0.0 0.00 0.00 0.00 95 1015.6
20260502121130 49 126 0.0 0.0 0.00 0.00 0.00 95 1015.9
20260502120630 49 126 0.0 0.0 0.00 0.00 0.00 95 1015.6
20260502120130 49 128 0.0 0.0 0.00 0.00 0.00 94 1015.8
20260502115917 49 128 0.0 0.0 0.00 0.00 0.00 94 1015.6
20260502115129 49 128 0.0 0.0 0.00 0.00 0.00 94 1016.0
20260502114630 50 128 0.0 0.0 0.00 0.00 0.00 93 1015.8
20260502114129 50 128 0.0 0.0 0.00 0.00 0.00 93 1015.8
20260502113919 50 128 0.0 0.0 0.00 0.00 0.00 93 1015.8
20260502113131 50 128 0.0 0.0 0.00 0.00 0.00 93 1015.8
20260502112629 50 128 0.0 0.0 0.00 0.00 0.00 93 1015.8
20260502112129 50 128 0.0 0.0 0.00 0.00 0.00 93 1015.4
20260502111629 49 128 0.0 0.0 0.00 0.00 0.00 94 1015.7
20260502111130 49 128 0.0 0.0 0.00 0.00 0.00 94 1015.2
20260502110935 49 128 0.0 0.0 0.00 0.00 0.00 94 1015.4
20260502110130 49 128 0.0 0.0 0.00 0.00 0.00 94 1015.2
20260502105629 49 128 0.0 0.0 0.00 0.00 0.00 94 1015.3
20260502105430 49 128 0.0 0.0 0.00 0.00 0.00 94 1014.9
20260502104629 49 128 0.0 0.0 0.00 0.00 0.00 93 1015.1
20260502104129 49 128 0.0 0.0 0.00 0.00 0.00 93 1015.0
20260502103629 49 128 0.0 0.0 0.00 0.00 0.00 93 1015.0
20260502103417 49 128 0.0 0.0 0.00 0.00 0.00 93 1014.9
20260502102629 50 128 0.0 0.0 0.00 0.00 0.00 92 1015.3
20260502102128 50 127 0.0 0.0 0.00 0.00 0.00 91 1015.0
20260502101629 51 128 0.0 0.0 0.00 0.00 0.00 90 1014.9
20260502101129 51 128 0.0 0.0 0.00 0.00 0.00 90 1014.9
20260502100629 51 128 0.0 0.0 0.00 0.00 0.00 89 1015.0
20260502100129 51 128 0.0 0.0 0.00 0.00 0.00 90 1015.3
20260502091130 51 128 0.0 0.0 0.00 0.00 0.00 90 1015.2
20260502090719 51 128 0.0 0.0 0.00 0.00 0.00 89 1015.2
20260502090657 51 128 0.0 0.0 0.00 0.00 0.00 90 1015.2
20260502071128 53 137 0.0 0.0 0.00 0.00 0.00 79 1015.1
20260502070912 53 137 0.0 0.0 0.00 0.00 0.00 79 1015.0
20260502070129 53 137 0.0 0.0 0.00 0.00 0.00 77 1015.1
20260502065630 53 138 0.0 0.0 0.00 0.00 0.00 78 1014.9
20260502065414 53 138 0.0 0.0 0.00 0.00 0.00 77 1015.1
20260502064629 53 138 0.0 0.0 0.00 0.00 0.00 77 1014.9
20260502064129 53 137 0.0 0.0 0.00 0.00 0.00 80 1015.1
20260502063630 53 137 0.0 0.0 0.00 0.00 0.00 78 1014.7
20260502063412 54 137 0.0 0.0 0.00 0.00 0.00 78 1014.5
20260502062631 53 137 0.0 0.0 0.00 0.00 0.00 76 1014.9
20260502062129 54 138 0.0 0.0 0.00 0.00 0.00 79 1014.8
20260502061918 54 138 0.0 0.0 0.00 0.00 0.00 78 1014.6
20260502061436 54 137 0.0 0.0 0.00 0.00 0.00 76 1014.8
20260502060628 54 137 0.0 0.0 0.00 0.00 0.00 76 1015.0
20260502060129 54 136 0.0 0.0 0.00 0.00 0.00 76 1014.6
20260502055629 53 138 0.0 0.0 0.00 0.00 0.00 76 1014.7
20260502055128 53 138 0.0 0.0 0.00 0.00 0.00 76 1014.9
20260502054629 54 138 0.0 0.0 0.00 0.00 0.00 76 1014.6
20260502054129 53 138 0.0 0.0 0.00 0.00 0.00 75 1014.8
20260502053629 54 112 0.0 0.0 0.00 0.00 0.00 76 1014.7
20260502053130 54 112 0.0 0.0 0.00 0.00 0.00 75 1014.7
20260502052631 54 112 0.0 0.0 0.00 0.00 0.00 74 1014.6
20260502052129 54 112 0.0 0.0 0.00 0.00 0.00 76 1014.7
20260502051630 54 112 0.0 0.0 0.00 0.00 0.00 77 1014.6
20260502051130 54 112 0.0 0.0 0.00 0.00 0.00 75 1014.5
20260502050629 54 112 0.0 0.0 0.00 0.00 0.00 75 1014.6
20260502050140 55 112 0.0 0.0 0.00 0.00 0.00 76 1014.7
20260502045916 55 112 0.0 0.0 0.00 0.00 0.00 75 1014.3
20260502045130 55 111 0.0 0.0 0.00 0.00 0.00 75 1014.3
20260502044630 55 111 0.0 0.0 0.00 0.00 0.00 73 1014.1
20260502044129 56 112 0.0 0.0 0.00 0.00 0.00 74 1014.4
20260502043917 56 116 0.0 0.0 0.00 0.00 0.00 75 1014.7
20260502043419 56 116 0.0 0.0 0.00 0.00 0.00 74 1014.3
20260502042629 56 116 0.0 0.0 0.00 0.00 0.00 72 1014.1
20260502042129 57 112 0.0 0.0 0.00 0.00 0.00 72 1014.3
20260502041918 57 121 0.0 0.0 0.00 0.00 0.00 72 1014.3
20260502041130 57 118 0.0 0.0 0.00 0.00 0.00 74 1014.1
20260502040631 58 119 0.0 0.0 0.00 0.00 0.00 74 1014.0
20260502040133 58 120 0.0 0.0 0.00 0.00 0.00 73 1014.0
20260502035629 58 128 0.0 0.0 0.00 0.00 0.00 74 1014.1
20260502035129 58 136 0.0 0.0 0.00 0.00 0.00 71 1013.8
20260502034923 58 138 0.0 0.0 0.00 0.00 0.00 73 1014.0
20260502034129 59 136 0.0 0.0 0.00 0.00 0.00 76 1014.1
20260502033633 59 148 0.0 0.0 0.00 0.00 0.00 71 1014.0
20260502033133 60 148 0.0 0.0 0.00 0.00 0.00 70 1013.7
20260502032630 59 127 0.0 0.0 0.00 0.00 0.00 69 1013.8
20260502032129 60 126 0.0 0.0 0.00 0.00 0.00 77 1013.5
20260502031629 60 124 0.0 0.0 0.00 0.00 0.00 70 1013.4
20260502031130 61 124 0.0 0.0 0.00 0.00 0.00 71 1013.4
20260502030629 61 124 0.0 0.0 0.00 0.00 0.00 70 1013.6
20260502030133 61 124 0.0 0.0 0.00 0.00 0.00 71 1013.6
20260502025628 62 124 0.0 0.0 0.00 0.00 0.00 69 1013.4
20260502025128 61 113 0.0 0.0 0.00 0.00 0.00 73 1013.5
20260502024631 62 144 0.0 0.0 0.00 0.00 0.00 78 1013.4
20260502024415 62 126 0.0 0.0 0.00 0.00 0.00 77 1013.2
20260502023629 62 127 0.0 0.0 0.00 0.00 0.00 73 1013.2
20260502023132 62 127 0.0 0.0 0.00 0.00 0.00 74 1013.1
20260502022629 63 121 0.0 0.0 0.00 0.00 0.00 72 1013.2
20260502022129 63 122 0.0 0.0 0.00 0.00 0.00 72 1013.2
20260502021720 63 121 0.0 0.0 0.00 0.00 0.00 69 1013.0
20260502021656 64 122 0.0 0.0 0.00 0.00 0.00 71 1013.2
20260502020629 64 122 0.0 0.0 0.00 0.00 0.00 68 1013.1
20260502020131 64 127 0.0 0.0 0.00 0.00 0.00 68 1013.0
20260502015633 64 127 0.0 0.0 0.00 0.00 0.00 64 1012.7
20260502015130 65 126 0.0 0.0 0.00 0.00 0.00 68 1013.0
20260502014632 65 120 0.0 0.0 0.00 0.00 0.00 65 1013.0
20260502014133 65 117 0.0 0.0 0.00 0.00 0.00 66 1013.0
20260502013915 66 126 0.0 0.0 0.00 0.00 0.00 60 1013.2
20260502013132 65 117 0.0 0.0 0.00 0.00 0.00 64 1013.2
20260502012927 66 115 0.0 0.0 0.00 0.00 0.00 65 1013.1
20260502012131 66 128 0.0 0.0 0.00 0.00 0.00 67 1013.3
20260502011632 66 123 0.0 0.0 0.00 0.00 0.00 64 1013.1
20260502011133 66 125 0.0 0.0 0.00 0.00 0.00 62 1013.1
20260502010631 66 117 0.0 0.0 0.00 0.00 0.00 63 1013.3
20260502010130 66 124 0.0 0.0 0.00 0.00 0.00 62 1012.9
20260502005634 67 125 0.0 0.0 0.00 0.00 0.00 62 1013.0
20260502005132 66 102 0.0 0.0 0.00 0.00 0.00 61 1013.1
20260502004630 67 117 0.0 0.0 0.00 0.00 0.00 63 1013.1
20260502004129 67 97 0.0 0.0 0.00 0.00 0.00 58 1013.1
20260502003629 67 107 0.0 0.0 0.00 0.00 0.00 61 1012.8
20260502003129 67 103 0.0 0.0 0.00 0.00 0.00 60 1012.9
20260502002629 67 33 0.0 0.0 0.00 0.00 0.00 59 1013.1
20260502002128 67 13 0.0 1.0 0.00 0.00 0.00 60 1012.8
20260502001630 67 80 0.0 1.0 0.00 0.00 0.00 59 1012.8
20260502001526 68 119 0.0 0.0 0.00 0.00 0.00 68 1013.0
20260502001456 67 138 0.0 0.0 0.00 0.00 0.00 58 1012.7
20260502000130 67 94 0.0 0.0 0.00 0.00 0.00 60 1012.8
20260501235630 68 94 0.0 0.0 0.00 0.00 0.00 59 1013.0
20260501235129 68 100 0.0 0.0 0.00 0.00 0.00 56 1012.9
20260501234631 68 125 0.0 0.0 0.00 0.00 0.00 59 1012.9
20260501234129 69 140 0.0 0.0 0.00 0.00 0.00 54 1012.8
20260501233632 69 141 0.0 0.0 0.00 0.00 0.00 53 1012.8
20260501233424 69 133 0.0 0.0 0.00 0.00 0.00 56 1012.8
20260501232629 69 73 0.0 0.0 0.00 0.00 0.00 54 1013.0
20260501232129 69 147 0.0 0.0 0.00 0.00 0.00 53 1013.2
20260501231630 69 144 0.0 0.0 0.00 0.00 0.00 54 1013.2
20260501231129 69 111 0.0 0.0 0.00 0.00 0.00 52 1013.1
20260501230629 69 148 0.0 0.0 0.00 0.00 0.00 54 1013.1
20260501230131 69 127 0.0 0.0 0.00 0.00 0.00 54 1013.2
20260501225628 69 82 0.0 0.0 0.00 0.00 0.00 55 1013.3
20260501225128 69 152 0.0 0.0 0.00 0.00 0.00 55 1013.4
20260501224918 69 130 0.0 0.0 0.00 0.00 0.00 54 1013.3
20260501224129 69 122 0.0 0.0 0.00 0.00 0.00 57 1013.6
20260501223922 69 150 0.0 0.0 0.00 0.00 0.00 57 1013.6
20260501223427 69 156 0.0 0.0 0.00 0.00 0.00 53 1013.5
20260501222631 69 103 0.0 0.0 0.00 0.00 0.00 54 1013.7
20260501222424 69 147 0.0 0.0 0.00 0.00 0.00 55 1013.7
20260501221630 69 128 0.0 0.0 0.00 0.00 0.00 55 1013.5
20260501221426 69 156 0.0 0.0 0.00 0.00 0.00 54 1013.8
20260501220633 69 144 0.0 0.0 0.00 0.00 0.00 53 1013.4
20260501220353 69 23 0.0 0.0 0.00 0.00 0.00 55 1013.8
20260501215632 69 147 0.0 0.0 0.00 0.00 0.00 59 1013.5
20260501215129 69 152 0.0 0.0 0.00 0.00 0.00 57 1013.7
20260501214629 70 156 0.0 0.0 0.00 0.00 0.00 56 1013.7
20260501214132 69 132 0.0 0.0 0.00 0.00 0.00 57 1013.8
20260501213629 69 165 0.0 0.0 0.00 0.00 0.00 56 1013.7
20260501213129 69 155 0.0 0.0 0.00 0.00 0.00 59 1013.6
20260501212923 69 131 0.0 0.0 0.00 0.00 0.00 57 1013.7
20260501212130 69 154 0.0 0.0 0.00 0.00 0.00 58 1013.7
20260501211629 69 127 0.0 0.0 0.00 0.00 0.00 59 1013.8
20260501211130 69 177 0.0 0.0 0.00 0.00 0.00 58 1013.7
20260501210629 69 119 0.0 0.0 0.00 0.00 0.00 55 1013.9
20260501210417 69 137 0.0 0.0 0.00 0.00 0.00 57 1014.0
20260501205631 69 125 0.0 0.0 0.00 0.00 0.00 58 1014.0
20260501205130 69 169 0.0 0.0 0.00 0.00 0.00 59 1013.8
20260501204629 69 165 0.0 0.0 0.00 0.00 0.00 60 1013.9
20260501204132 69 75 0.0 0.0 0.00 0.00 0.00 59 1013.9
20260501203917 69 148 0.0 0.0 0.00 0.00 0.00 57 1014.0
20260501203129 69 145 0.0 0.0 0.00 0.00 0.00 59 1014.1
20260501202633 69 129 0.0 0.0 0.00 0.00 0.00 59 1013.9
20260501202128 68 156 0.0 0.0 0.00 0.00 0.00 59 1014.2
20260501201630 69 127 0.0 0.0 0.00 0.00 0.00 59 1014.0
20260501201132 69 133 0.0 0.0 0.00 0.00 0.00 59 1014.0
20260501200917 68 130 0.0 0.0 0.00 0.00 0.00 57 1014.0
20260501200129 68 125 0.0 0.0 0.00 0.00 0.00 56 1014.1
20260501195629 68 131 0.0 0.0 0.00 0.00 0.00 55 1014.1
20260501195130 69 117 0.0 0.0 0.00 0.00 0.00 55 1014.1
20260501194630 68 138 0.0 0.0 0.00 0.00 0.00 56 1014.2
20260501194128 68 147 0.0 0.0 0.00 0.00 0.00 57 1014.2
20260501193629 68 128 0.0 0.0 0.00 0.00 0.00 55 1014.2
20260501193222 67 158 0.0 0.0 0.00 0.00 0.00 58 1014.3
20260501193159 67 132 0.0 0.0 0.00 0.00 0.00 59 1014.4
20260501192128 67 159 0.0 0.0 0.00 0.00 0.00 57 1014.3
20260501191630 68 120 0.0 0.0 0.00 0.00 0.00 56 1014.3
20260501191128 68 50 0.0 0.0 0.00 0.00 0.00 60 1014.3
20260501190634 67 129 0.0 0.0 0.00 0.00 0.00 59 1014.3
20260501190130 67 150 0.0 0.0 0.00 0.00 0.00 61 1014.6
20260501185631 67 152 0.0 0.0 0.00 0.00 0.00 63 1014.5
20260501185130 67 129 0.0 1.0 0.00 0.00 0.00 57 1014.7
20260501184631 67 168 0.0 1.0 0.00 0.00 0.00 55 1014.6
20260501184130 67 136 0.0 3.0 0.00 0.00 0.00 55 1014.5
20260501183634 66 45 1.0 3.0 0.00 0.00 0.00 55 1014.6
20260501183210 66 105 1.0 3.0 0.00 0.00 0.00 57 1014.8
20260501183152 66 127 0.0 3.0 0.00 0.00 0.00 56 1014.8
20260501182424 66 16 2.0 2.0 0.00 0.00 0.00 56 1015.0
20260501181633 65 159 0.0 1.0 0.00 0.00 0.00 59 1014.8
20260501181130 65 163 0.0 2.0 0.00 0.00 0.00 59 1015.1
20260501180628 65 127 0.0 2.0 0.00 0.00 0.00 59 1015.0
20260501180129 65 150 0.0 1.0 0.00 0.00 0.00 62 1014.9
20260501175629 64 146 0.0 2.0 0.00 0.00 0.00 62 1014.8
20260501175129 64 91 2.0 4.0 0.00 0.00 0.00 63 1015.0
20260501174925 64 101 0.0 4.0 0.00 0.00 0.00 61 1015.1
20260501174421 64 121 1.0 4.0 0.00 0.00 0.00 62 1015.2
20260501173630 63 72 2.0 4.0 0.00 0.00 0.00 61 1015.2
20260501173130 63 120 0.0 4.0 0.00 0.00 0.00 61 1015.4
20260501172645 63 108 0.0 3.0 0.00 0.00 0.00 63 1015.4
20260501172635 63 54 2.0 4.0 0.00 0.00 0.00 60 1015.4
20260501171630 63 57 3.0 3.0 0.00 0.00 0.00 61 1015.2
20260501171427 62 132 1.0 2.0 0.00 0.00 0.00 62 1015.2
20260501170934 62 48 1.0 2.0 0.00 0.00 0.00 64 1015.4
20260501170129 62 160 1.0 3.0 0.00 0.00 0.00 63 1015.7
20260501165633 62 96 1.0 3.0 0.00 0.00 0.00 66 1015.4
20260501165129 62 132 0.0 2.0 0.00 0.00 0.00 64 1015.6
20260501164922 62 8 1.0 2.0 0.00 0.00 0.00 65 1015.7
20260501164133 61 133 0.0 3.0 0.00 0.00 0.00 66 1015.6
20260501163631 61 85 1.0 3.0 0.00 0.00 0.00 67 1015.7
20260501163415 61 37 1.0 3.0 0.00 0.00 0.00 71 1015.4